Regional Weather Roundup
Issued by NWS

Home | Current Version | Previous Version | Text Only | Print | Product List | Glossary On
Versions: 1 2 3 4 5 6 7 8 9 10 11 12 13 14 15 16 17 18 19 20 21 22 23 24 25 26 27 28
733
ASUS44 KBMX 221610
RWRAL

ALABAMA REGIONAL WEATHER ROUNDUP
NATIONAL WEATHER SERVICE BIRMINGHAM AL
1100 AM CDT FRI MAY 22 2015

NOTE: "FAIR" INDICATES FEW OR NO CLOUDS BELOW 12,000 FEET
WITH NO SIGNIFICANT WEATHER AND/OR OBSTRUCTIONS TO VISIBILITY.

THE REMARK "TC" DENOTES TEMPERATURE IN DEGREES CELSIUS.

ALZ001>011-014-016>018-020-221700-
NORTH ALABAMA

CITY           SKY/WX    TMP DP  RH WIND       PRES   REMARKS
MUSCLE SHOALS  SUNNY     64  44  48 E5        30.30S
HUNTSVILLE     PTSUNNY   67  48  50 NE9       30.28S
DECATUR        NOT AVBL
HALEYVILLE     FAIR      64  48  56 NE7       30.29F
GADSDEN        SUNNY    N/A N/A N/A NW6       30.24F
$$

ALZ012-013-022-023-030>036-040>044-221700-
WEST CENTRAL ALABAMA

CITY           SKY/WX    TMP DP  RH WIND       PRES   REMARKS
TUSCALOOSA     SUNNY     67  47  48 N8        30.27S
$$

ALZ015-024>027-033>036-040>044-221700-
CENTRAL ALABAMA

CITY           SKY/WX    TMP DP  RH WIND       PRES   REMARKS
BIRMINGHAM     MOSUNNY   67  47  48 NE8       30.27F
MONTGOMERY     SUNNY     69  48  47 N8        30.23S
SHELBY CO ARPT SUNNY     66  47  50 VRB3      30.25F
MAXWELL AFB    SUNNY     67  49  52 VRB5      30.22S
GREENVILLE     FAIR      69  50  50 N8        30.21S
$$

ALZ019-021-028-029-037-038-045>048-221700-
EAST CENTRAL ALABAMA

CITY           SKY/WX    TMP DP  RH WIND       PRES   REMARKS
ANNISTON       SUNNY     67  48  50 VRB5      30.24F
ALEXANDER CITY SUNNY     67  48  51 N7        30.23S
AUBURN         SUNNY     64  46  52 E5        30.23S
$$

ALZ051>064-221700-
SOUTHWEST ALABAMA

CITY           SKY/WX    TMP DP  RH WIND       PRES   REMARKS
MOBILE         MOSUNNY   72  57  59 N8        30.19S
BROOKLEY FIELD MOSUNNY   72  56  57 N12       30.19F
EVERGREEN      SUNNY     69  52  54 NE8       30.21S
$$

ALZ049-050-065>069-221700-
SOUTHEAST ALABAMA

CITY           SKY/WX    TMP DP  RH WIND       PRES   REMARKS
DOTHAN         MOSUNNY   70  51  51 VRB6      30.22F
OZARK          MOSUNNY   70  52  52 NE6       30.18F
TROY           SUNNY     69  51  52 N8        30.22S
EUFAULA        FAIR      71  52  50 VRB5      30.19F
$$



USA.gov is the U.S. government's official web portal to all federal, state and local government web resources and services.